Time,TemperatureF,DewpointF,PressureIn,WindDirection,WindDirectionDegrees,WindSpeedMPH,WindSpeedGustMPH,Humidity,HourlyPrecipIn,Conditions,Clouds,dailyrainin,SoftwareType,DateUTC
2013-06-26 00:04:00,66.4,66.0,30.21,West,277,0.0,1.0,98,0.00,,,0.00,weatherlink.com 1.10,2013-06-26 04:04:00,
2013-06-26 00:19:00,66.6,66.0,30.21,East,90,1.0,1.0,98,0.00,,,0.00,weatherlink.com 1.10,2013-06-26 04:19:00,
2013-06-26 00:34:00,66.8,66.0,30.21,ESE,115,0.0,1.0,98,0.00,,,0.00,weatherlink.com 1.10,2013-06-26 04:34:00,
2013-06-26 00:49:00,66.9,66.0,30.20,West,262,0.0,1.0,98,0.00,,,0.00,weatherlink.com 1.10,2013-06-26 04:49:00,
2013-06-26 01:04:00,66.2,65.0,30.21,West,262,0.0,1.0,97,0.00,,,0.00,weatherlink.com 1.10,2013-06-26 05:04:00,
2013-06-26 01:19:00,65.6,65.0,30.20,WSW,250,0.0,1.0,97,0.00,,,0.00,weatherlink.com 1.10,2013-06-26 05:19:00,
2013-06-26 01:34:00,65.1,64.0,30.19,WSW,250,0.0,0.0,97,0.00,,,0.00,weatherlink.com 1.10,2013-06-26 05:34:00,
2013-06-26 01:49:00,64.8,64.0,30.19,WSW,250,0.0,0.0,97,0.00,,,0.00,weatherlink.com 1.10,2013-06-26 05:49:00,
2013-06-26 02:04:00,65.3,65.0,30.18,WSW,250,0.0,1.0,98,0.00,,,0.00,weatherlink.com 1.10,2013-06-26 06:04:00,
2013-06-26 02:19:00,65.0,64.0,30.18,NW,308,0.0,1.0,97,0.00,,,0.00,weatherlink.com 1.10,2013-06-26 06:19:00,
2013-06-26 02:34:00,64.7,64.0,30.17,West,277,0.0,0.0,97,0.00,,,0.00,weatherlink.com 1.10,2013-06-26 06:34:00,
2013-06-26 02:49:00,64.5,64.0,30.17,West,276,0.0,0.0,98,0.00,,,0.00,weatherlink.com 1.10,2013-06-26 06:49:00,
2013-06-26 03:04:00,64.7,64.0,30.17,West,278,0.0,0.0,98,0.00,,,0.00,weatherlink.com 1.10,2013-06-26 07:04:00,
2013-06-26 03:19:00,64.8,64.0,30.16,West,270,0.0,1.0,98,0.00,,,0.00,weatherlink.com 1.10,2013-06-26 07:19:00,
2013-06-26 03:34:00,64.5,64.0,30.16,NNW,333,0.0,0.0,97,0.00,,,0.00,weatherlink.com 1.10,2013-06-26 07:34:00,
2013-06-26 03:49:00,64.4,64.0,30.16,WSW,245,0.0,1.0,98,0.00,,,0.00,weatherlink.com 1.10,2013-06-26 07:49:00,
2013-06-26 04:04:00,64.3,64.0,30.16,WSW,246,0.0,0.0,98,0.00,,,0.00,weatherlink.com 1.10,2013-06-26 08:04:00,
2013-06-26 04:19:00,64.3,64.0,30.16,WSW,245,0.0,1.0,98,0.00,,,0.00,weatherlink.com 1.10,2013-06-26 08:19:00,
2013-06-26 04:34:00,64.3,64.0,30.16,WSW,245,0.0,0.0,98,0.00,,,0.00,weatherlink.com 1.10,2013-06-26 08:34:00,
2013-06-26 04:49:00,64.1,64.0,30.17,WSW,246,0.0,0.0,98,0.00,,,0.00,weatherlink.com 1.10,2013-06-26 08:49:00,
2013-06-26 05:04:00,64.0,64.0,30.17,WSW,246,0.0,1.0,98,0.00,,,0.00,weatherlink.com 1.10,2013-06-26 09:04:00,
2013-06-26 05:19:00,63.8,63.0,30.18,WSW,246,0.0,0.0,98,0.00,,,0.00,weatherlink.com 1.10,2013-06-26 09:19:00,
2013-06-26 05:34:00,63.7,63.0,30.18,WSW,246,0.0,1.0,98,0.00,,,0.00,weatherlink.com 1.10,2013-06-26 09:34:00,
2013-06-26 05:49:00,63.7,63.0,30.19,WSW,245,0.0,0.0,98,0.00,,,0.00,weatherlink.com 1.10,2013-06-26 09:49:00,
2013-06-26 06:04:00,63.6,63.0,30.19,WSW,246,0.0,1.0,98,0.00,,,0.00,weatherlink.com 1.10,2013-06-26 10:04:00,
2013-06-26 06:19:00,63.6,63.0,30.20,WSW,246,0.0,0.0,98,0.00,,,0.00,weatherlink.com 1.10,2013-06-26 10:19:00,
2013-06-26 06:34:00,63.6,63.0,30.21,WSW,244,0.0,0.0,98,0.00,,,0.00,weatherlink.com 1.10,2013-06-26 10:34:00,
2013-06-26 06:49:00,63.7,63.0,30.21,WSW,245,0.0,0.0,98,0.00,,,0.00,weatherlink.com 1.10,2013-06-26 10:49:00,
2013-06-26 07:04:00,63.7,63.0,30.21,WSW,245,0.0,0.0,98,0.00,,,0.00,weatherlink.com 1.10,2013-06-26 11:04:00,
2013-06-26 07:19:00,63.4,63.0,30.22,WNW,303,0.0,1.0,98,0.00,,,0.00,weatherlink.com 1.10,2013-06-26 11:19:00,
2013-06-26 07:34:00,63.4,63.0,30.21,WNW,302,0.0,1.0,98,0.00,,,0.00,weatherlink.com 1.10,2013-06-26 11:34:00,
2013-06-26 07:49:00,63.8,64.0,30.21,WNW,283,0.0,1.0,99,0.00,,,0.00,weatherlink.com 1.10,2013-06-26 11:49:00,
2013-06-26 08:04:00,64.3,64.0,30.21,ESE,121,0.0,1.0,99,0.00,,,0.00,weatherlink.com 1.10,2013-06-26 12:04:00,
2013-06-26 08:19:00,64.8,64.0,30.20,SE,133,0.0,2.0,98,0.00,,,0.00,weatherlink.com 1.10,2013-06-26 12:19:00,
2013-06-26 08:34:00,65.3,65.0,30.21,SE,129,0.0,1.0,98,0.00,,,0.00,weatherlink.com 1.10,2013-06-26 12:34:00,
2013-06-26 08:49:00,66.2,65.0,30.22,NW,306,0.0,1.0,97,0.00,,,0.00,weatherlink.com 1.10,2013-06-26 12:49:00,
2013-06-26 09:04:00,66.8,65.0,30.22,SE,129,0.0,2.0,95,0.00,,,0.00,weatherlink.com 1.10,2013-06-26 13:04:00,
2013-06-26 09:19:00,68.9,67.0,30.21,SE,128,0.0,1.0,92,0.00,,,0.00,weatherlink.com 1.10,2013-06-26 13:19:00,
2013-06-26 09:34:00,71.5,68.0,30.20,WSW,253,1.0,1.0,88,0.00,,,0.00,weatherlink.com 1.10,2013-06-26 13:34:00,
2013-06-26 09:49:00,74.0,71.0,30.20,ESE,121,1.0,2.0,89,0.00,,,0.00,weatherlink.com 1.10,2013-06-26 13:49:00,
2013-06-26 10:04:00,76.7,72.0,30.19,SE,136,0.0,1.0,84,0.00,,,0.00,weatherlink.com 1.10,2013-06-26 14:04:00,
2013-06-26 10:20:00,76.6,70.0,30.19,East,89,0.0,2.0,80,0.00,,,0.00,weatherlink.com 1.10,2013-06-26 14:20:00,
2013-06-26 10:35:00,78.3,70.0,30.18,ENE,78,3.0,3.0,76,0.00,,,0.00,weatherlink.com 1.10,2013-06-26 14:35:00,
2013-06-26 10:50:00,80.5,73.0,30.18,East,94,1.0,2.0,78,0.00,,,0.00,weatherlink.com 1.10,2013-06-26 14:50:00,
2013-06-26 11:05:00,81.9,71.0,30.18,ENE,63,0.0,4.0,70,0.00,,,0.00,weatherlink.com 1.10,2013-06-26 15:05:00,
2013-06-26 11:20:00,83.2,70.0,30.18,SW,225,0.0,2.0,65,0.00,,,0.00,weatherlink.com 1.10,2013-06-26 15:20:00,
2013-06-26 11:35:00,83.0,69.0,30.18,WNW,282,0.0,3.0,63,0.00,,,0.00,weatherlink.com 1.10,2013-06-26 15:35:00,
2013-06-26 11:50:00,83.5,70.0,30.17,WNW,282,1.0,3.0,63,0.00,,,0.00,weatherlink.com 1.10,2013-06-26 15:50:00,
2013-06-26 12:05:00,84.5,69.0,30.17,WSW,252,0.0,3.0,60,0.00,,,0.00,weatherlink.com 1.10,2013-06-26 16:05:00,
2013-06-26 12:20:00,84.9,68.0,30.17,West,259,1.0,5.0,57,0.00,,,0.00,weatherlink.com 1.10,2013-06-26 16:20:00,
2013-06-26 12:35:00,85.1,68.0,30.17,WNW,293,1.0,5.0,57,0.00,,,0.00,weatherlink.com 1.10,2013-06-26 16:35:00,
2013-06-26 12:50:00,86.0,68.0,30.16,SW,222,2.0,8.0,56,0.00,,,0.00,weatherlink.com 1.10,2013-06-26 16:50:00,
2013-06-26 13:05:00,83.5,67.0,30.16,West,266,1.0,7.0,58,0.00,,,0.00,weatherlink.com 1.10,2013-06-26 17:05:00,
2013-06-26 13:20:00,81.8,68.0,30.16,WNW,297,0.0,4.0,63,0.00,,,0.00,weatherlink.com 1.10,2013-06-26 17:20:00,
2013-06-26 13:35:00,81.7,69.0,30.16,NW,305,0.0,2.0,66,0.00,,,0.00,weatherlink.com 1.10,2013-06-26 17:35:00,
2013-06-26 13:50:00,81.7,68.0,30.16,ESE,104,0.0,5.0,64,0.00,,,0.00,weatherlink.com 1.10,2013-06-26 17:50:00,
2013-06-26 14:05:00,82.2,70.0,30.14,NE,46,0.0,3.0,67,0.00,,,0.00,weatherlink.com 1.10,2013-06-26 18:05:00,
2013-06-26 14:20:00,83.0,70.0,30.15,SE,145,0.0,7.0,64,0.00,,,0.00,weatherlink.com 1.10,2013-06-26 18:20:00,
2013-06-26 14:35:00,84.5,72.0,30.14,NE,48,3.0,4.0,66,0.00,,,0.00,weatherlink.com 1.10,2013-06-26 18:35:00,
2013-06-26 14:50:00,83.9,70.0,30.14,NE,44,2.0,4.0,63,0.00,,,0.00,weatherlink.com 1.10,2013-06-26 18:50:00,
2013-06-26 15:05:00,83.2,70.0,30.14,NE,35,0.0,3.0,64,0.00,,,0.00,weatherlink.com 1.10,2013-06-26 19:05:00,
2013-06-26 15:20:00,85.0,70.0,30.13,WSW,242,1.0,3.0,62,0.00,,,0.00,weatherlink.com 1.10,2013-06-26 19:20:00,
2013-06-26 15:35:00,86.0,71.0,30.11,NW,316,0.0,4.0,61,0.00,,,0.00,weatherlink.com 1.10,2013-06-26 19:35:00,
2013-06-26 15:50:00,86.3,68.0,30.11,West,270,1.0,4.0,54,0.00,,,0.00,weatherlink.com 1.10,2013-06-26 19:50:00,
2013-06-26 16:05:00,85.9,68.0,30.10,WSW,245,1.0,4.0,55,0.00,,,0.00,weatherlink.com 1.10,2013-06-26 20:05:00,
2013-06-26 16:20:00,84.3,69.0,30.11,ENE,78,1.0,5.0,60,0.00,,,0.00,weatherlink.com 1.10,2013-06-26 20:20:00,
2013-06-26 16:35:00,83.5,72.0,30.11,West,267,2.0,8.0,68,0.00,,,0.00,weatherlink.com 1.10,2013-06-26 20:35:00,
2013-06-26 16:50:00,82.2,70.0,30.10,NW,315,5.0,6.0,67,0.00,,,0.00,weatherlink.com 1.10,2013-06-26 20:50:00,
2013-06-26 17:05:00,80.9,68.0,30.11,SW,232,4.0,6.0,64,0.00,,,0.00,weatherlink.com 1.10,2013-06-26 21:05:00,
2013-06-26 17:20:00,76.4,65.0,30.09,East,93,0.0,7.0,68,0.00,,,0.00,weatherlink.com 1.10,2013-06-26 21:20:00,
2013-06-26 17:35:00,74.6,65.0,30.09,NNE,30,0.0,4.0,73,0.00,,,0.00,weatherlink.com 1.10,2013-06-26 21:35:00,
2013-06-26 17:50:00,74.0,66.0,30.09,SE,138,1.0,5.0,77,0.00,,,0.00,weatherlink.com 1.10,2013-06-26 21:50:00,
2013-06-26 18:05:00,74.6,66.0,30.11,WNW,285,1.0,5.0,74,0.00,,,0.00,weatherlink.com 1.10,2013-06-26 22:05:00,
2013-06-26 18:20:00,74.6,67.0,30.10,NW,326,0.0,7.0,76,0.00,,,0.00,weatherlink.com 1.10,2013-06-26 22:20:00,
2013-06-26 18:35:00,75.6,68.0,30.10,East,91,0.0,1.0,77,0.00,,,0.00,weatherlink.com 1.10,2013-06-26 22:35:00,
2013-06-26 18:50:00,76.1,68.0,30.10,SW,236,0.0,3.0,75,0.00,,,0.00,weatherlink.com 1.10,2013-06-26 22:50:00,
2013-06-26 19:05:00,76.2,68.0,30.10,West,269,0.0,4.0,76,0.00,,,0.00,weatherlink.com 1.10,2013-06-26 23:05:00,
2013-06-26 19:20:00,76.1,68.0,30.10,WNW,300,0.0,2.0,76,0.00,,,0.00,weatherlink.com 1.10,2013-06-26 23:20:00,
2013-06-26 19:35:00,75.5,68.0,30.10,South,179,0.0,1.0,78,0.00,,,0.00,weatherlink.com 1.10,2013-06-26 23:35:00,
2013-06-26 19:50:00,74.8,68.0,30.09,South,181,0.0,0.0,80,0.00,,,0.00,weatherlink.com 1.10,2013-06-26 23:50:00,
2013-06-26 20:05:00,74.9,69.0,30.09,SSE,165,0.0,0.0,81,0.00,,,0.00,weatherlink.com 1.10,2013-06-27 00:05:00,
2013-06-26 20:20:00,74.4,68.0,30.09,West,260,0.0,1.0,81,0.00,,,0.00,weatherlink.com 1.10,2013-06-27 00:20:00,
2013-06-26 20:35:00,74.5,69.0,30.10,West,266,1.0,1.0,82,0.00,,,0.00,weatherlink.com 1.10,2013-06-27 00:35:00,
2013-06-26 20:50:00,74.0,69.0,30.09,SW,234,0.0,1.0,83,0.00,,,0.00,weatherlink.com 1.10,2013-06-27 00:50:00,
2013-06-26 21:05:00,72.8,68.0,30.10,SW,235,0.0,0.0,86,0.00,,,0.00,weatherlink.com 1.10,2013-06-27 01:05:00,
2013-06-26 21:20:00,71.4,68.0,30.10,SW,235,0.0,0.0,90,0.00,,,0.00,weatherlink.com 1.10,2013-06-27 01:20:00,
2013-06-26 21:35:00,70.6,68.0,30.11,SW,232,0.0,0.0,91,0.00,,,0.00,weatherlink.com 1.10,2013-06-27 01:35:00,
2013-06-26 21:51:00,70.8,68.0,30.11,WSW,253,0.0,1.0,90,0.00,,,0.00,weatherlink.com 1.10,2013-06-27 01:51:00,
2013-06-26 22:06:00,70.3,68.0,30.11,ENE,72,0.0,0.0,91,0.00,,,0.00,weatherlink.com 1.10,2013-06-27 02:06:00,
2013-06-26 22:21:00,69.7,67.0,30.11,East,101,0.0,2.0,92,0.00,,,0.00,weatherlink.com 1.10,2013-06-27 02:21:00,
2013-06-26 22:36:00,69.5,67.0,30.12,East,85,0.0,0.0,92,0.00,,,0.00,weatherlink.com 1.10,2013-06-27 02:36:00,
2013-06-26 22:51:00,69.0,67.0,30.11,East,85,0.0,0.0,94,0.00,,,0.00,weatherlink.com 1.10,2013-06-27 02:51:00,
2013-06-26 23:06:00,68.7,67.0,30.11,East,85,0.0,0.0,94,0.00,,,0.00,weatherlink.com 1.10,2013-06-27 03:06:00,
2013-06-26 23:21:00,68.4,67.0,30.11,East,84,0.0,0.0,94,0.00,,,0.00,weatherlink.com 1.10,2013-06-27 03:21:00,
2013-06-26 23:36:00,68.0,67.0,30.12,East,84,0.0,0.0,95,0.00,,,0.00,weatherlink.com 1.10,2013-06-27 03:36:00,
2013-06-26 23:51:00,67.7,66.0,30.12,East,85,0.0,0.0,95,0.00,,,0.00,weatherlink.com 1.10,2013-06-27 03:51:00,